sat.trackr.live / text

‹ back to catalog

YUNHAI-2 02C

NORAD 59282 · 2024-052C

PAYLOAD ACTIVE UNKNOWN

§ Identity

Operator
Country
PRC
Launch date
2024-03-21
Launch site
JSC
Launch vehicle
Mass (kg)
RCS (m²)

External: N2YO · Heavens-Above · Gunter

§ Orbital elements

Epoch: 2026-05-25T05:47:51.598752Z

Period
100.84 min
Inclination
50.0084°
Eccentricity
0.0006306
Mean motion
14.27954860 rev/d
Perigee alt
794.0 km
Apogee alt
803.1 km
Semi-major
7,176.7 km
B*
5.7673e-5
RAAN
239.6655°
Arg perigee
83.5543°
Mean anomaly
276.6089°
Rev number
11,152

§ Raw data

YUNHAI-2 02C1 59282U 24052C   26145.24156943 -.00000017  00000+0  57673-4 0  99912 59282  50.0084 239.6655 0006306  83.5543 276.6089 14.27954860111528

JSON: /api/v1/satellites/59282 · /tle

For live sub-satellite position, see the globe view (requires WebGL).

§ Visibility from observer

Set your observer location to see the next 7 days of passes ≥ 10°. The values pass through the URL so the page stays shareable.

No JS? Fill the form by hand. The geolocation button needs JavaScript.